Date String (YYYY-MM-DD hh:mm:ss) UTC,Instrument flags,Ambient pressure (hPa),Sample flow (lpm),Bypass flow (lpm),Sample temperature (°C),Ambient temperature (°C),ASC tube jacket temperature (°C),LED temperature (°C),Box temperature (°C),Sample RH (%),Span deviation,Mass concentration (μg/m³),Mass concentration (μg/m³),Mass concentration (μg/m³)
DateTimeUTC,F1_M11,P_M11,Q1_M11,Q2_M11,T1_M11,T2_M11,T3_M11,T4_M11,T5_M11,U1_M11,ZSPAN_M11,X0_M11,X2_M11,X1_M11
2021-09-25 23:00:00,,0825.5,5.00,0.00,29.0,28.0,00.0,38.0,31.0,12.7,0003.1,0015.17,0006.96,0006.11
2021-09-25 23:01:00,,0825.5,4.99,0.00,29.1,28.0,00.0,38.0,31.0,12.3,0002.9,0015.10,0007.00,0006.12
2021-09-25 23:02:00,,0825.5,5.00,0.00,29.0,26.4,00.0,38.0,30.5,12.2,0002.8,0015.15,0007.03,0006.13
2021-09-25 23:03:00,,0825.4,4.99,0.00,28.9,25.4,00.0,38.0,30.2,12.4,0003.3,0014.65,0007.07,0006.14
2021-09-25 23:04:00,,0825.4,5.00,0.00,28.8,25.8,00.0,37.9,30.3,12.6,0003.5,0015.22,0007.13,0006.14
2021-09-25 23:05:00,,0825.4,5.01,0.00,28.8,26.2,00.0,37.9,30.4,12.3,0003.6,0014.75,0007.06,0006.14
2021-09-25 23:06:00,,0825.4,4.99,0.00,28.8,26.7,00.0,37.9,30.5,12.2,0003.3,0014.75,0007.04,0006.13
2021-09-25 23:07:00,,0825.4,5.01,0.00,28.9,27.2,00.0,37.9,30.6,12.0,0003.1,0014.75,0007.09,0006.13
2021-09-25 23:08:00,,0825.4,4.99,0.00,28.9,27.5,00.0,37.9,30.7,12.0,0002.9,0015.23,0007.11,0006.14
2021-09-25 23:09:00,,0825.4,5.00,0.00,29.0,27.8,00.0,37.9,30.8,12.2,0002.8,0014.99,0007.09,0006.15
2021-09-25 23:10:00,,0825.4,5.01,0.00,29.0,28.1,00.0,37.9,30.9,12.2,0003.0,0014.79,0007.10,0006.16
2021-09-25 23:11:00,,0825.4,4.98,0.00,29.1,28.3,00.0,38.0,31.1,12.1,0002.9,0015.10,0007.13,0006.16
2021-09-25 23:12:00,,0825.5,5.01,0.00,29.2,28.4,00.0,38.0,31.1,12.4,0003.2,0015.39,0007.14,0006.17
2021-09-25 23:13:00,,0825.5,5.01,0.00,29.1,27.0,00.0,38.0,30.7,13.1,0003.3,0015.53,0007.16,0006.18
2021-09-25 23:14:00,,0825.5,5.00,0.00,29.0,25.6,00.0,38.0,30.3,13.1,0003.3,0015.25,0007.16,0006.21
2021-09-25 23:15:00,,0825.5,4.99,0.00,28.9,25.8,00.0,38.0,30.3,13.2,0003.2,0013.88,0007.09,0006.23
2021-09-25 23:16:00,,0825.5,5.00,0.00,28.9,26.3,00.0,38.0,30.5,13.6,0003.0,0013.16,0007.08,0006.23
2021-09-25 23:17:00,,0825.5,5.01,0.00,28.9,26.7,00.0,38.0,30.6,13.5,0002.9,0012.48,0007.07,0006.24
2021-09-25 23:18:00,,0825.5,4.99,0.00,28.9,27.2,00.0,38.0,30.7,13.6,0003.1,0013.08,0007.06,0006.25
2021-09-25 23:19:00,,0825.5,5.01,0.00,29.0,27.6,00.0,38.0,30.8,13.9,0003.2,0013.60,0007.08,0006.26
2021-09-25 23:20:00,,0825.5,4.99,0.00,29.0,27.9,00.0,38.0,30.9,13.4,0003.0,0013.76,0007.06,0006.26
2021-09-25 23:21:00,,0825.5,5.00,0.00,29.1,28.1,00.0,38.0,31.0,13.0,0003.0,0014.84,0007.05,0006.26
2021-09-25 23:22:00,,0825.5,5.01,0.00,29.2,28.4,00.0,38.0,31.1,13.1,0002.7,0015.87,0007.02,0006.25
2021-09-25 23:23:00,,0825.5,5.00,0.00,29.2,28.5,00.0,38.1,31.2,13.3,0002.6,0015.77,0007.03,0006.24
2021-09-25 23:24:00,,0825.5,4.98,0.00,29.3,28.4,00.0,38.1,31.2,13.3,0002.5,0015.80,0007.02,0006.24
2021-09-25 23:25:00,,0825.4,5.01,0.00,29.2,26.6,00.0,38.1,30.7,13.1,0002.2,0016.16,0007.03,0006.22
2021-09-25 23:26:00,,0825.5,5.00,0.00,29.0,25.6,00.0,38.1,30.4,13.5,0001.8,0017.04,0007.07,0006.21
2021-09-25 23:27:00,,0825.4,4.99,0.00,29.0,26.0,00.0,38.1,30.5,13.5,0001.7,0017.73,0007.11,0006.22
2021-09-25 23:28:00,,0825.5,5.00,0.00,29.0,26.4,00.0,38.1,30.6,13.4,0001.6,0017.87,0007.16,0006.24
2021-09-25 23:29:00,,0825.4,4.99,0.00,29.0,26.9,00.0,38.0,30.7,13.0,0001.6,0017.29,0007.18,0006.25
2021-09-25 23:30:00,,0825.5,5.01,0.00,29.0,27.3,00.0,38.0,30.8,12.6,0001.4,0016.67,0007.21,0006.25
2021-09-25 23:31:00,,0825.4,5.00,0.00,29.1,27.7,00.0,38.0,30.9,12.7,0000.8,0016.68,0007.23,0006.27
2021-09-25 23:32:00,,0825.5,5.00,0.00,29.1,28.0,00.0,38.1,31.1,12.9,0000.5,0016.10,0007.25,0006.27
2021-09-25 23:33:00,,0825.5,4.99,0.00,29.2,28.2,00.0,38.1,31.1,12.9,0000.4,0014.93,0007.28,0006.28
2021-09-25 23:34:00,,0825.5,5.00,0.00,29.3,28.5,00.0,38.1,31.2,12.6,0000.8,0014.75,0007.28,0006.28
2021-09-25 23:35:00,,0825.5,5.00,0.00,29.3,28.5,00.0,38.2,31.2,12.7,0001.2,0014.64,0007.28,0006.29
2021-09-25 23:36:00,,0825.5,4.99,0.00,29.3,27.0,00.0,38.2,30.8,12.4,0001.1,0014.38,0007.28,0006.28
2021-09-25 23:37:00,,0825.5,5.00,0.00,29.1,25.7,00.0,38.1,30.5,12.3,0001.4,0013.53,0007.22,0006.25
2021-09-25 23:38:00,,0825.5,5.01,0.00,29.0,25.9,00.0,38.1,30.5,12.3,0001.5,0013.17,0007.16,0006.24
2021-09-25 23:39:00,,0825.5,4.99,0.00,29.0,26.4,00.0,38.1,30.6,12.5,0001.5,0013.43,0007.15,0006.21
2021-09-25 23:40:00,,0825.5,4.99,0.00,29.0,26.8,00.0,38.1,30.7,12.8,0001.2,0014.10,0007.18,0006.19
2021-09-25 23:41:00,,0825.5,5.01,0.00,29.0,27.3,00.0,38.1,30.8,12.7,0001.6,0014.07,0007.25,0006.19
2021-09-25 23:42:00,,0825.5,4.98,0.00,29.1,27.6,00.0,38.1,30.9,12.8,0002.3,0014.03,0007.28,0006.18
2021-09-25 23:43:00,,0825.5,5.02,0.00,29.1,27.9,00.0,38.1,31.0,12.6,0002.2,0013.76,0007.35,0006.17
2021-09-25 23:44:00,,0825.5,5.00,0.00,29.2,28.2,00.0,38.1,31.1,12.6,0002.4,0014.29,0007.36,0006.17
2021-09-25 23:45:00,,0825.5,5.00,0.00,29.3,28.4,00.0,38.2,31.2,12.6,0002.3,0014.14,0007.32,0006.17
2021-09-25 23:46:00,,0825.6,4.99,0.00,29.3,28.6,00.0,38.2,31.3,12.3,0001.6,0014.00,0007.29,0006.18
2021-09-25 23:47:00,,0825.6,5.02,0.00,29.3,27.4,00.0,38.2,31.0,11.9,0001.4,0013.84,0007.27,0006.20
2021-09-25 23:48:00,,0825.6,5.00,0.00,29.1,25.7,00.0,38.2,30.5,12.1,0001.3,0013.96,0007.31,0006.23
2021-09-25 23:49:00,,0825.6,5.01,0.00,29.0,25.8,00.0,38.2,30.5,12.3,0001.0,0013.91,0007.32,0006.24
2021-09-25 23:50:00,,0825.6,4.99,0.00,29.0,26.2,00.0,38.1,30.6,12.5,0001.2,0013.58,0007.31,0006.24
2021-09-25 23:51:00,,0825.6,5.00,0.00,29.0,26.7,00.0,38.1,30.7,12.4,0001.2,0013.25,0007.32,0006.26
2021-09-25 23:52:00,,0825.6,5.00,0.00,29.0,27.2,00.0,38.1,30.8,12.6,0001.1,0013.17,0007.23,0006.26
2021-09-25 23:53:00,,0825.6,5.00,0.00,29.1,27.6,00.0,38.1,30.9,12.9,0001.0,0013.15,0007.21,0006.26
2021-09-25 23:54:00,,0825.6,5.00,0.00,29.1,27.9,00.0,38.1,31.0,12.8,0001.1,0012.76,0007.12,0006.27
2021-09-25 23:55:00,,0825.6,5.01,0.00,29.2,28.1,00.0,38.1,31.1,12.2,0001.4,0012.12,0007.07,0006.28
2021-09-25 23:56:00,,0825.6,5.00,0.00,29.3,28.4,00.0,38.2,31.2,12.0,0001.1,0011.98,0007.07,0006.27
2021-09-25 23:57:00,,0825.6,4.99,0.00,29.3,28.6,00.0,38.2,31.3,12.2,0001.3,0012.08,0007.12,0006.28
2021-09-25 23:58:00,,0825.6,5.00,0.00,29.4,28.5,00.0,38.2,31.3,12.5,0001.3,0012.28,0007.18,0006.29
2021-09-25 23:59:00,,0825.6,5.01,0.00,29.3,26.8,00.0,38.2,30.8,12.7,0001.4,0012.65,0007.20,0006.29
